GW4465 Weather Reports


Display with metric or nautical units.
time (UTC)temp
F
wind
direction
speed
MPH
gust
MPH
rain 1hr
in
rain 24hr
in
rain mn
in
humidity
%
barometer
mb
20260504035606 44 320 0.0 3.0 0.00 0.00 0.00 74 1018.6
20260504035102 44 3 3.0 3.0 0.00 0.00 0.00 75 1018.6
20260504034600 44 342 0.0 3.0 0.00 0.00 0.00 74 1018.7
20260504034056 44 342 3.0 3.0 0.00 0.00 0.00 72 1018.8
20260504033554 45 348 3.0 5.0 0.00 0.00 0.00 73 1018.5
20260504033051 45 334 2.0 3.0 0.00 0.00 0.00 72 1018.8
20260504032548 45 341 3.0 4.0 0.00 0.00 0.00 72 1018.5
20260504032045 46 358 3.0 4.0 0.00 0.00 0.00 70 1018.5
20260504031542 46 0 3.0 4.0 0.00 0.00 0.00 71 1018.4
20260504031038 46 315 3.0 4.0 0.00 0.00 0.00 68 1018.6
20260504030536 47 333 0.0 3.0 0.00 0.00 0.00 67 1018.6
20260504030032 47 0 3.0 4.0 0.00 0.00 0.00 66 1018.6
20260504025529 48 330 3.0 4.0 0.00 0.00 0.00 64 1018.6
20260504025026 48 0 2.0 3.0 0.00 0.00 0.00 63 1018.5
20260504024523 48 322 3.0 4.0 0.00 0.00 0.00 63 1018.4
20260504024020 48 333 3.0 5.0 0.00 0.00 0.00 62 1018.7
20260504023516 49 344 4.0 5.0 0.00 0.00 0.00 63 1018.6
20260504023012 49 349 3.0 3.0 0.00 0.00 0.00 61 1018.7
20260504022508 50 347 5.0 5.0 0.00 0.00 0.00 61 1018.6
20260504022005 50 350 3.0 4.0 0.00 0.00 0.00 57 1018.5
20260504021503 50 331 3.0 5.0 0.00 0.00 0.00 58 1018.3
20260504020959 51 342 2.0 3.0 0.00 0.00 0.00 55 1018.2
20260504020456 51 344 2.0 3.0 0.00 0.00 0.00 54 1018.0
20260504015953 51 16 0.0 3.0 0.00 0.00 0.00 56 1018.0
20260504015449 51 37 0.0 3.0 0.00 0.00 0.00 54 1018.1
20260504014945 51 24 2.0 2.0 0.00 0.00 0.00 55 1017.9
20260504014441 51 20 0.0 0.0 0.00 0.00 0.00 54 1018.0
20260504013938 51 26 0.0 2.0 0.00 0.00 0.00 54 1017.9
20260504013437 52 13 0.0 3.0 0.00 0.00 0.00 53 1017.9
20260504012932 52 328 0.0 2.0 0.00 0.00 0.00 52 1017.9
20260504012430 52 2 0.0 0.0 0.00 0.00 0.00 53 1018.0
20260504011928 52 12 0.0 2.0 0.00 0.00 0.00 52 1017.8
20260504011424 52 53 3.0 3.0 0.00 0.00 0.00 52 1017.8
20260504010920 52 32 3.0 4.0 0.00 0.00 0.00 53 1017.7
20260504010416 53 30 2.0 3.0 0.00 0.00 0.00 51 1017.7
20260504005913 53 27 0.0 3.0 0.00 0.00 0.00 51 1017.7
20260504005409 53 352 0.0 2.0 0.00 0.00 0.00 50 1017.5
20260504004907 54 40 2.0 2.0 0.00 0.00 0.00 51 1017.7
20260504004405 54 321 2.0 3.0 0.00 0.00 0.00 50 1017.4
20260504003901 55 292 2.0 3.0 0.00 0.00 0.00 49 1017.3
20260504003358 55 335 2.0 4.0 0.00 0.00 0.00 48 1017.3
20260504002854 56 334 2.0 3.0 0.00 0.00 0.00 48 1017.2
20260504002351 56 315 3.0 3.0 0.00 0.00 0.00 45 1017.2
20260504001849 57 331 0.0 3.0 0.00 0.00 0.00 44 1017.3
20260504001346 57 311 3.0 4.0 0.00 0.00 0.00 45 1017.1
20260504000842 58 27 3.0 3.0 0.00 0.00 0.00 42 1017.1
20260504000340 59 227 0.0 2.0 0.00 0.00 0.00 43 1017.0
20260503235837 59 346 0.0 2.0 0.00 0.00 0.00 42 1017.2
20260503235335 59 147 0.0 2.0 0.00 0.00 0.00 41 1017.0
20260503234832 60 89 0.0 3.0 0.00 0.00 0.00 39 1017.0
20260503234330 60 317 3.0 4.0 0.00 0.00 0.00 38 1017.1
20260503233827 60 15 2.0 4.0 0.00 0.00 0.00 38 1017.0
20260503233323 61 242 2.0 3.0 0.00 0.00 0.00 39 1016.8
20260503232820 62 285 3.0 5.0 0.00 0.00 0.00 41 1016.8
20260503232317 62 18 4.0 6.0 0.00 0.00 0.00 36 1016.8
20260503231815 62 45 3.0 5.0 0.00 0.00 0.00 36 1017.0
20260503231312 62 48 10.0 11.0 0.00 0.00 0.00 35 1016.6
20260503230808 63 66 5.0 8.0 0.00 0.00 0.00 35 1016.8
20260503230305 63 44 5.0 7.0 0.00 0.00 0.00 36 1016.7
20260503225802 63 29 4.0 5.0 0.00 0.00 0.00 35 1016.6
20260503225258 64 16 5.0 6.0 0.00 0.00 0.00 35 1016.8
20260503224755 64 21 5.0 5.0 0.00 0.00 0.00 35 1016.6
20260503224252 64 26 3.0 4.0 0.00 0.00 0.00 33 1016.8
20260503223749 64 32 5.0 8.0 0.00 0.00 0.00 34 1016.6
20260503223247 64 329 0.0 5.0 0.00 0.00 0.00 34 1016.7
20260503222743 64 61 3.0 5.0 0.00 0.00 0.00 34 1016.8
20260503222241 65 15 3.0 5.0 0.00 0.00 0.00 34 1016.6
20260503221739 65 282 0.0 4.0 0.00 0.00 0.00 33 1016.7
20260503221237 65 35 3.0 10.0 0.00 0.00 0.00 33 1016.6
20260503220733 65 68 7.0 7.0 0.00 0.00 0.00 33 1016.7
20260503220230 65 37 2.0 6.0 0.00 0.00 0.00 34 1016.7
20260503215727 65 180 0.0 5.0 0.00 0.00 0.00 34 1016.8
20260503215224 65 350 0.0 5.0 0.00 0.00 0.00 34 1016.8
20260503214722 65 280 4.0 9.0 0.00 0.00 0.00 34 1016.6
20260503214218 66 320 3.0 8.0 0.00 0.00 0.00 32 1016.8
20260503213717 66 304 3.0 5.0 0.00 0.00 0.00 33 1017.0
20260503213213 65 10 4.0 7.0 0.00 0.00 0.00 32 1016.9
20260503212710 66 353 4.0 5.0 0.00 0.00 0.00 31 1016.9
20260503212208 66 359 3.0 5.0 0.00 0.00 0.00 31 1016.9
20260503211705 66 35 5.0 5.0 0.00 0.00 0.00 30 1016.9
20260503211201 66 46 3.0 9.0 0.00 0.00 0.00 29 1017.0
20260503210657 66 350 5.0 6.0 0.00 0.00 0.00 28 1016.8
20260503210154 66 322 5.0 7.0 0.00 0.00 0.00 29 1017.1
20260503205649 66 282 5.0 7.0 0.00 0.00 0.00 28 1016.9
20260503205146 66 22 7.0 8.0 0.00 0.00 0.00 28 1017.1
20260503204643 66 300 5.0 5.0 0.00 0.00 0.00 30 1017.2
20260503204140 66 52 10.0 12.0 0.00 0.00 0.00 28 1017.3
20260503203637 66 6 3.0 3.0 0.00 0.00 0.00 28 1017.2
20260503203135 66 353 4.0 5.0 0.00 0.00 0.00 28 1017.4
20260503202632 66 11 4.0 7.0 0.00 0.00 0.00 30 1017.2
20260503202130 66 201 2.0 7.0 0.00 0.00 0.00 28 1017.3
20260503201628 65 307 3.0 3.0 0.00 0.00 0.00 30 1017.3
20260503201125 66 251 3.0 5.0 0.00 0.00 0.00 27 1017.3
20260503200621 66 267 4.0 7.0 0.00 0.00 0.00 29 1017.5
20260503200118 66 339 3.0 7.0 0.00 0.00 0.00 30 1017.7
20260503195615 66 14 3.0 4.0 0.00 0.00 0.00 27 1017.8
20260503195112 66 351 3.0 8.0 0.00 0.00 0.00 27 1017.9
20260503194610 65 9 5.0 9.0 0.00 0.00 0.00 27 1018.0
20260503194109 65 342 6.0 6.0 0.00 0.00 0.00 27 1018.0
20260503193607 65 275 7.0 7.0 0.00 0.00 0.00 27 1018.1
20260503193102 65 342 3.0 6.0 0.00 0.00 0.00 26 1018.1
20260503192558 65 54 0.0 5.0 0.00 0.00 0.00 28 1018.0
20260503192054 65 334 5.0 5.0 0.00 0.00 0.00 30 1018.0
20260503191551 64 76 5.0 7.0 0.00 0.00 0.00 27 1018.4
20260503191048 65 239 8.0 10.0 0.00 0.00 0.00 27 1018.5
20260503190545 65 25 7.0 7.0 0.00 0.00 0.00 29 1018.4
20260503190042 64 69 3.0 6.0 0.00 0.00 0.00 30 1018.4
20260503185538 64 71 6.0 7.0 0.00 0.00 0.00 29 1018.4
20260503185032 64 20 4.0 7.0 0.00 0.00 0.00 28 1018.6
20260503184529 64 336 5.0 7.0 0.00 0.00 0.00 31 1018.6
20260503184025 63 339 9.0 9.0 0.00 0.00 0.00 30 1018.7
20260503183522 63 81 3.0 7.0 0.00 0.00 0.00 31 1018.8
20260503183019 63 21 2.0 5.0 0.00 0.00 0.00 32 1018.8
20260503182517 62 32 5.0 7.0 0.00 0.00 0.00 33 1018.9
20260503182015 63 38 7.0 11.0 0.00 0.00 0.00 32 1018.8
20260503181512 64 54 10.0 11.0 0.00 0.00 0.00 31 1019.0
20260503181008 63 34 5.0 8.0 0.00 0.00 0.00 33 1018.9
20260503180505 63 306 6.0 7.0 0.00 0.00 0.00 33 1019.0
20260503180002 62 234 2.0 6.0 0.00 0.00 0.00 33 1019.1
20260503175500 62 47 7.0 9.0 0.00 0.00 0.00 33 1019.1
20260503174956 62 300 7.0 7.0 0.00 0.00 0.00 33 1019.1
20260503174454 63 298 4.0 5.0 0.00 0.00 0.00 33 1019.0
20260503173949 64 268 5.0 7.0 0.00 0.00 0.00 33 1019.2
20260503173445 63 347 4.0 7.0 0.00 0.00 0.00 32 1019.4
20260503172942 63 300 3.0 7.0 0.00 0.00 0.00 31 1019.5
20260503172440 62 337 5.0 7.0 0.00 0.00 0.00 31 1019.7
20260503171936 62 308 4.0 7.0 0.00 0.00 0.00 33 1019.9
20260503171433 62 345 3.0 6.0 0.00 0.00 0.00 33 1019.7
20260503170931 61 9 5.0 10.0 0.00 0.00 0.00 34 1019.7
20260503170426 61 15 8.0 8.0 0.00 0.00 0.00 34 1019.9
20260503150819 52 352 4.0 6.0 0.00 0.00 0.00 50 1020.8
20260503150314 52 20 4.0 9.0 0.00 0.00 0.00 48 1021.2
20260503140239 48 17 4.0 6.0 0.00 0.00 0.00 61 1021.1
20260503131209 42 38 4.0 5.0 0.00 0.00 0.00 90 1021.3
20260503130706 41 36 4.0 5.0 0.00 0.00 0.00 91 1021.2
20260503130204 40 37 3.0 5.0 0.00 0.00 0.00 92 1021.1
20260503120130 35 10 3.0 4.0 0.00 0.00 0.00 97 1020.7
20260503110551 34 348 3.0 3.0 0.00 0.00 0.00 96 1020.0
20260503090437 36 333 4.0 5.0 0.00 0.00 0.00 93 1018.8
20260503081404 37 334 0.0 3.0 0.00 0.00 0.00 92 1018.4
20260503080901 37 347 2.0 4.0 0.00 0.00 0.00 91 1018.4
20260503080358 37 336 3.0 5.0 0.00 0.00 0.00 91 1018.2
20260503072834 38 349 2.0 3.0 0.00 0.00 0.00 89 1017.9
20260503072331 38 348 3.0 4.0 0.00 0.00 0.00 89 1017.9
20260503071827 39 346 3.0 5.0 0.00 0.00 0.00 89 1017.9
20260503071325 39 346 4.0 5.0 0.00 0.00 0.00 88 1017.9
20260503070821 39 330 3.0 3.0 0.00 0.00 0.00 88 1017.8
20260503070319 39 344 4.0 4.0 0.00 0.00 0.00 88 1017.8
20260503060244 41 354 2.0 4.0 0.00 0.00 0.00 84 1017.8
20260503054731 42 318 2.0 4.0 0.00 0.00 0.00 80 1017.7
20260503054228 42 3 2.0 3.0 0.00 0.00 0.00 80 1017.9
20260503053726 42 358 3.0 4.0 0.00 0.00 0.00 80 1018.0
20260503053225 43 354 3.0 4.0 0.00 0.00 0.00 81 1017.7
20260503052720 43 359 2.0 4.0 0.00 0.00 0.00 78 1017.8
20260503052217 43 303 4.0 4.0 0.00 0.00 0.00 79 1017.9
20260503051712 43 322 5.0 5.0 0.00 0.00 0.00 79 1017.7
20260503051210 43 8 0.0 3.0 0.00 0.00 0.00 77 1018.0
20260503050706 43 319 0.0 2.0 0.00 0.00 0.00 77 1018.0
20260503050203 43 324 3.0 3.0 0.00 0.00 0.00 77 1018.0
20260503045701 43 335 4.0 4.0 0.00 0.00 0.00 76 1018.1
20260503045158 44 340 3.0 5.0 0.00 0.00 0.00 77 1018.0
20260503044654 44 23 3.0 4.0 0.00 0.00 0.00 77 1017.8
20260503044152 44 334 5.0 5.0 0.00 0.00 0.00 76 1018.0
20260503043648 44 341 0.0 4.0 0.00 0.00 0.00 75 1017.5
20260503043146 44 357 2.0 3.0 0.00 0.00 0.00 75 1017.7
20260503042642 44 327 4.0 5.0 0.00 0.00 0.00 75 1017.8
20260503042138 44 31 4.0 5.0 0.00 0.00 0.00 76 1017.7
20260503041634 44 350 2.0 3.0 0.00 0.00 0.00 76 1017.7
20260503041132 44 354 4.0 4.0 0.00 0.00 0.00 76 1017.5
20260503040629 44 355 2.0 3.0 0.00 0.00 0.00 76 1017.4
20260503040127 43 9 2.0 3.0 0.00 0.00 0.00 75 1017.5